Regional Weather Roundup
Issued by NWS Albany, NY

Home | Current Version | Previous Version | Graphics & Text | Print | Product List | Glossary On
Versions: 1 2 3 4 5 6 7 8 9 10 11 12 13 14 15 16 17 18 19 20 21 22 23 24 25 26 27 28 29 30 31 32 33 34 35 36 37 38 39 40 41 42 43 44 45 46 47 48 49 50
000
ASUS41 KALY 011210
RWRALY

NEW YORK STATE HOURLY WEATHER ROUNDUP
NATIONAL WEATHER SERVICE ALBANY NY
800 AM EDT TUE SEP 01 2015

NOTE: "FAIR" INDICATES FEW OR NO CLOUDS BELOW 12,000 FEET WITH NO
SIGNIFICANT WEATHER AND/OR NO OBSTRUCTIONS TO VISIBILITY.

NYZ032-033-038>043-046>054-057>066-NYZ062>081-011300-
EAST


CITY           SKY/WX    TMP DP  RH WIND       PRES   REMARKS
ALBANY         SUNNY     68  63  84 CALM      30.07R
GLENS FALLS    PTSUNNY   62  60  93 CALM      30.07S FOG
POUGHKEEPSIE   SUNNY     67  64  90 CALM      30.06R
NEWBURGH       SUNNY     66  66 100 CALM      30.08R
MONTGOMERY     SUNNY     67  65  93 CALM      30.07R FOG
WHITE PLAINS   SUNNY     73  65  75 N7        30.05R
ISLIP          MOSUNNY   76  67  73 N7        30.02R
NEW YORK CITY  SUNNY     77  67  71 NE9       30.03R
CENTRAL PARK   SUNNY     77  65  66 CALM      30.07R
$$

NYZ005>009-017-018-044>046-055-056-011300-
CENTRAL


CITY           SKY/WX    TMP DP  RH WIND       PRES   REMARKS
FULTON         CLOUDY    68  66  93 SW3       30.08R FOG
SYRACUSE       CLOUDY    68  65  90 CALM      30.07R
ROME           CLOUDY    64  63  96 CALM      30.09S
ELMIRA         FOG       63  63 100 W7        30.10S VSB 1/4
BINGHAMTON     FOG       63  63 100 CALM      30.12R VSB 1/4
MONTICELLO     PTSUNNY   59  59 100 CALM      30.13R VSB 1/4
$$

NYZ026>034-041>043-011300-
NORTH


CITY           SKY/WX    TMP DP  RH WIND       PRES   REMARKS
WATERTOWN      PTSUNNY   68  67  96 CALM      30.06R FOG
FORT DRUM      NOT AVBL
MASSENA        SUNNY     60  59  96 SW3       30.08R FOG
SARANAC LAKE   FOG       59  59 100 SW7       30.11R VSB<1/4
PLATTSBURGH    SUNNY     63  60  90 CALM      30.07R
$$

NYZ001>004-010>016-019>021-011300-
WEST


CITY           SKY/WX    TMP DP  RH WIND       PRES   REMARKS
NIAGARA FALLS  FOG       66  66 100 CALM      30.09R VSB 1/8
BUFFALO        CLOUDY    70  67  90 SW5       30.09R FOG
DUNKIRK        MOSUNNY   68  66  93 S6        30.11R FOG
JAMESTOWN      CLOUDY    61  57  88 S3        30.15R VSB<1/4
WELLSVILLE     FOG       66  64  93 W5        30.17R VSB<1/4
ROCHESTER      CLOUDY    69  66  90 SW6       30.09R FOG
PENN YAN       SUNNY     67  65  93 SW5       30.10S FOG
$$

             KEY
       WCI = WIND CHILL INDEX
       VSB = VISIBILITY
       HX  = HEAT INDEX
$$



USA.gov is the U.S. government's official web portal to all federal, state and local government web resources and services.